Temp
10 10 9 9 9 9 9 9 9 8 8 8 9 8 8 8 7 7 7 8 8 9 9 9 9 9 9 9 9 9 9 9 9 8 9 9 9 9 9 10 9 9 9
10 9 9 9 9 9 9 8 8 8 8 8 7 8 7 7 7 7 8 8 8 9 9 9 9 9 9 9 9 9 9 9 9 9 9 9 9 8 9 9 9 9 9
10 9 9 9 9 9 8 8 7 7 7 8 8 8 7 8 7 8 7 8 8 9 9 9 9 8 9 9 9 9 9 9 9 9 9 9 9 9 9 9 9 9 9
9 9 9 9 9 9 8 8 8 8 8 7 7 8 8 8 8 8 9 9 8 9 9 9 8 8 8 8 8 9 9 8 9 9 9 9 9 9 9 9 9 9 9
9 8 7 8 8 8 8 9 8 8 8 8 8 8 8 8 8 9 8 9 8 8 8 8 9 8 8 8 8 8 8 8 8 9 9 9 9 9 9 9 9 9 9
8 7 7 7 7 7 6 7 8 8 8 8 8 8 8 8 8 8 8 9 9 8 8 8 8 8 8 9 8 8 8 8 8 8 9 9 9 9 9 9 9 9 9
7 7 7 7 7 7 7 6 7 7 7 7 8 8 8 8 8 8 9 8 9 9 9 8 8 9 9 8 8 8 8 8 8 7 8 9 9 8 9 9 9 9 9
7 6 5 5 5 5 5 6 6 7 7 7 7 7 8 7 8 8 8 9 9 9 9 8 8 8 9 9 8 9 8 8 8 8 8 8 9 8 8 9 9 9 9
6 6 5 5 5 5 6 6 7 7 7 7 7 7 7 7 7 7 8 8 8 8 8 9 8 8 8 8 9 9 9 9 9 9 8 8 8 8 8 8 9 8 9
6 5 6 5 6 6 5 6 7 7 8 7 8 8 7 8 7 8 8 8 8 8 8 8 8 8 8 8 9 9 9 8 8 9 9 8 8 8 8 9 8 9 8
6 5 6 6 6 6 6 5 6 6 7 7 7 7 7 7 7 7 8 8 8 8 8 8 8 8 8 8 8 8 8 8 8 8 8 8 8 9 8 8 8 8 9
6 6 6 6 6 6 6 6 6 6 7 7 7 7 7 7 7 7 7 7 8 8 8 8 8 8 8 8 8 8 8 8 8 8 8 8 8 8 8 8 8 8 8
6 6 6 6 6 6 6 6 6 6 7 7 7 7 7 7 7 7 7 8 7 7 8 8 8 8 8 8 8 8 8 8 8 8 8 8 8 8 8 8 8 8 8
6 6 6 6 7 7 7 7 7 7 7 7 7 7 7 8 7 7 7 7 7 7 8 8 8 8 8 8 8 7 7 7 8 8 8 8 8 8 9 8 8 8 8
7 7 7 7 7 7 7 7 8 8 7 8 8 8 8 8 8 8 8 7 7 7 7 7 7 8 8 7 7 7 7 6 7 8 8 8 9 9 9 8 8 9 8
6 6 7 7 7 7 8 8 7 7 7 7 7 7 8 8 8 7 7 7 7 7 7 6 6 6 6 7 7 7 7 7 7 7 8 8 9 9 9 8 8 8 7
6 6 7 7 7 7 7 7 8 7 6 6 6 6 6 7 6 6 5 6 6 6 6 6 5 6 6 5 6 6 7 7 7 7 7 8 8 9 9 8 8 7 7
6 7 7 7 7 7 7 7 6 6 7 6 5 4 4 4 5 5 5 4 4 5 5 4 4 4 5 5 5 5 5 5 6 6 7 7 8 9 9 8 8 7 7
6 6 6 6 6 6 6 6 5 5 5 5 5 4 3 3 3 2 1 1 1 2 4 4 4 4 4 4 4 5 5 5 5 5 6 6 7 8 8 8 8 7 7
5 6 6 6 6 6 6 5 5 4 4 3 3 3 3 2 1 0 -1 -0 -0 1 2 4 4 4 4 4 4 4 5 4 4 5 5 5 6 7 7 7 7 7 7
5 5 5 5 5 5 5 4 4 3 2 1 0 -0 -1 -1 -1 -1 -1 -1 -0 1 2 2 3 3 3 3 4 4 4 5 5 5 5 5 5 6 7 7 7 7 6
4 4 4 4 4 4 3 3 2 1 0 0 0 -1 0 -1 -1 -0 -1 -1 -0 1 1 1 2 2 3 3 4 4 4 4 5 4 4 4 5 5 6 6 6 6 6
3 3 3 3 2 2 2 1 1 0 -0 -0 -0 0 -0 -1 -1 -1 -0 0 1 1 1 1 2 3 3 3 4 4 4 4 4 4 4 4 4 4 4 5 6 6 6
3 2 2 2 2 2 1 1 1 1 -0 -0 -0 -0 0 -0 -0 -0 0 0 1 1 1 1 2 3 3 4 4 4 4 4 4 4 3 3 4 4 4 4 5 6 6
1 1 1 1 1 1 1 1 1 1 0 -0 -1 -0 -1 -0 0 0 -0 -1 -0 0 0 1 2 2 2 3 3 3 3 3 3 4 3 3 3 4 4 4 5 5 5
1 1 0 0 0 0 -0 0 0 0 -1 -1 -1 -1 -1 -0 0 -0 -1 -1 -0 1 1 1 2 2 2 3 2 2 3 3 4 3 3 3 4 3 3 4 5 5 5
Height
3174 3172 3170 3167 3163 3159 3155 3151 3148 3143 3139 3136 3133 3132 3130 3130 3135 3139 3140 3145 3146 3146 3146 3147 3147 3148 3150 3151 3151 3151 3153 3154 3154 3154 3154 3156 3155 3156 3156 3157 3158 3159 3160
3173 3170 3168 3164 3161 3157 3153 3151 3146 3144 3142 3140 3137 3134 3132 3131 3132 3132 3135 3140 3142 3142 3141 3141 3141 3141 3145 3145 3145 3147 3148 3148 3148 3151 3151 3152 3152 3151 3152 3153 3154 3156 3157
3172 3169 3166 3161 3157 3154 3151 3149 3147 3144 3142 3140 3139 3136 3135 3134 3134 3135 3134 3135 3136 3136 3135 3135 3137 3139 3139 3140 3141 3142 3143 3143 3145 3146 3147 3147 3147 3148 3147 3150 3151 3152 3153
3170 3166 3162 3158 3154 3150 3147 3145 3143 3142 3141 3139 3138 3137 3136 3134 3132 3133 3132 3132 3132 3132 3130 3132 3133 3134 3134 3135 3137 3137 3137 3138 3139 3140 3142 3143 3143 3144 3145 3146 3146 3147 3148
3165 3162 3159 3155 3152 3148 3145 3142 3139 3137 3137 3136 3135 3134 3134 3133 3132 3131 3131 3130 3129 3128 3127 3129 3129 3129 3129 3129 3129 3129 3128 3131 3133 3133 3136 3138 3139 3140 3140 3140 3141 3142 3142
3164 3159 3156 3153 3150 3147 3143 3140 3137 3135 3132 3131 3131 3130 3129 3129 3128 3126 3125 3124 3124 3123 3123 3124 3124 3124 3124 3124 3123 3123 3123 3125 3126 3127 3129 3131 3133 3134 3135 3136 3136 3137 3138
3159 3156 3151 3148 3146 3142 3139 3137 3133 3131 3128 3126 3124 3123 3122 3122 3121 3120 3119 3119 3119 3119 3118 3118 3118 3119 3119 3119 3118 3118 3118 3119 3120 3121 3122 3125 3126 3127 3128 3129 3130 3132 3132
3154 3151 3147 3144 3141 3138 3135 3131 3128 3126 3124 3121 3118 3116 3116 3115 3114 3112 3111 3112 3112 3112 3112 3112 3112 3113 3113 3114 3114 3114 3115 3115 3114 3114 3116 3118 3119 3121 3120 3121 3122 3124 3126
3150 3147 3143 3140 3137 3134 3130 3126 3123 3120 3118 3115 3113 3111 3109 3109 3107 3105 3105 3105 3104 3104 3104 3104 3105 3106 3106 3106 3107 3108 3108 3109 3108 3108 3109 3111 3111 3112 3112 3114 3115 3116 3118
3147 3143 3140 3136 3133 3128 3123 3119 3116 3113 3111 3109 3107 3105 3104 3103 3101 3099 3098 3099 3099 3098 3097 3097 3097 3098 3098 3099 3099 3100 3102 3102 3102 3102 3102 3102 3103 3104 3104 3105 3106 3108 3109
3143 3138 3135 3130 3126 3121 3117 3113 3110 3107 3105 3103 3101 3099 3097 3096 3096 3094 3093 3091 3091 3090 3090 3090 3090 3090 3090 3090 3091 3091 3093 3094 3094 3095 3095 3095 3096 3096 3097 3098 3099 3100 3100
3136 3131 3127 3124 3120 3116 3112 3109 3104 3100 3097 3095 3094 3094 3092 3090 3088 3087 3085 3084 3083 3082 3082 3083 3083 3083 3083 3083 3082 3082 3083 3084 3084 3085 3086 3087 3088 3089 3089 3089 3089 3089 3091
3128 3124 3120 3117 3113 3110 3105 3102 3098 3094 3091 3089 3086 3085 3085 3084 3082 3079 3077 3075 3074 3073 3073 3074 3075 3076 3076 3076 3076 3075 3075 3074 3073 3074 3075 3077 3077 3078 3080 3081 3081 3082 3081
3120 3116 3112 3107 3104 3101 3097 3093 3090 3087 3083 3080 3077 3074 3073 3073 3072 3071 3069 3067 3066 3065 3065 3065 3065 3066 3066 3066 3066 3066 3066 3066 3065 3066 3066 3066 3067 3068 3069 3070 3070 3071 3070
3112 3107 3103 3099 3095 3092 3088 3084 3080 3077 3072 3069 3067 3064 3062 3061 3060 3057 3057 3057 3056 3055 3055 3055 3055 3055 3055 3055 3055 3055 3055 3055 3055 3056 3056 3057 3057 3057 3058 3059 3059 3059 3057
3103 3099 3094 3090 3086 3082 3077 3075 3071 3066 3062 3058 3055 3051 3051 3049 3047 3045 3044 3044 3044 3044 3043 3044 3043 3044 3043 3043 3042 3043 3043 3043 3044 3044 3045 3046 3046 3047 3048 3049 3049 3049 3049
3094 3090 3086 3080 3076 3071 3066 3061 3058 3057 3051 3048 3044 3040 3038 3036 3034 3032 3031 3031 3031 3032 3031 3031 3031 3032 3031 3031 3031 3031 3032 3032 3032 3031 3033 3035 3036 3037 3037 3039 3040 3040 3041
3085 3080 3076 3071 3066 3061 3056 3051 3047 3043 3041 3039 3036 3031 3027 3023 3021 3019 3019 3017 3018 3018 3019 3019 3019 3020 3020 3020 3020 3020 3021 3022 3021 3021 3021 3023 3024 3026 3027 3028 3030 3031 3032
3079 3074 3068 3063 3057 3052 3046 3042 3038 3034 3030 3027 3025 3022 3016 3012 3009 3008 3007 3006 3005 3005 3005 3005 3007 3008 3009 3010 3011 3011 3011 3011 3012 3011 3010 3011 3013 3014 3016 3018 3019 3022 3023
3073 3067 3061 3056 3050 3044 3038 3034 3029 3024 3020 3015 3012 3010 3007 3001 2999 2998 2997 2996 2994 2992 2991 2991 2994 2996 2998 2999 3000 3000 3001 3001 3001 3001 3000 3000 3001 3002 3004 3007 3009 3012 3014
3067 3061 3055 3049 3043 3037 3031 3026 3020 3015 3010 3006 3002 2999 2996 2991 2989 2986 2984 2984 2983 2980 2978 2979 2980 2983 2986 2987 2989 2989 2989 2990 2991 2991 2991 2990 2991 2991 2994 2996 2999 3002 3004
3063 3056 3051 3045 3039 3032 3026 3019 3013 3007 3002 2997 2992 2989 2985 2982 2979 2977 2975 2973 2971 2970 2970 2971 2971 2973 2975 2976 2977 2977 2978 2978 2980 2981 2981 2981 2981 2981 2983 2985 2988 2992 2995
3058 3053 3047 3041 3036 3029 3023 3015 3008 3001 2995 2989 2984 2979 2975 2972 2969 2967 2965 2963 2962 2962 2962 2962 2962 2964 2965 2966 2966 2966 2966 2968 2969 2970 2970 2972 2972 2973 2974 2976 2979 2982 2985
3054 3048 3043 3037 3032 3026 3019 3011 3004 2996 2988 2981 2977 2972 2968 2964 2961 2959 2956 2954 2953 2954 2954 2954 2954 2954 2955 2954 2955 2955 2955 2957 2957 2958 2959 2960 2962 2964 2966 2967 2969 2973 2976
3049 3044 3039 3033 3028 3021 3015 3007 2999 2991 2982 2974 2969 2965 2961 2958 2955 2952 2951 2949 2947 2946 2946 2946 2946 2946 2945 2944 2944 2943 2944 2944 2944 2946 2947 2949 2950 2952 2955 2958 2962 2965 2966
3047 3042 3036 3030 3024 3018 3011 3004 2996 2986 2976 2968 2963 2958 2954 2951 2948 2946 2943 2941 2940 2939 2939 2938 2937 2936 2934 2934 2933 2932 2933 2934 2934 2935 2936 2938 2940 2942 2945 2949 2952 2955 2958
Wind_Speed
11 13 15 17 18 22 21 21 15 15 15 15 18 14 14 24 33 27 19 20 22 22 23 24 26 25 22 21 24 23 21 21 18 15 16 16 14 13 12 13 15 16 19
14 17 18 18 19 20 22 20 18 14 12 11 12 12 9 14 21 11 17 16 18 21 21 22 19 21 26 22 24 25 23 22 22 19 17 18 15 16 15 16 15 14 16
17 19 22 22 21 19 17 18 16 15 15 13 10 6 2 3 12 21 12 10 16 20 23 22 16 15 17 22 27 23 24 24 23 22 20 21 18 18 18 19 17 18 19
20 20 21 18 17 16 16 17 18 16 14 14 12 8 6 6 9 8 12 17 14 17 16 8 14 17 18 17 23 28 26 23 23 25 22 22 21 19 21 20 20 19 20
14 17 17 19 17 15 14 14 16 18 19 17 16 15 13 12 11 13 14 14 13 10 8 9 11 13 18 17 20 22 31 26 24 25 23 22 21 20 19 24 24 22 22
19 22 18 16 17 19 19 16 15 15 16 17 19 20 19 19 18 19 18 17 17 15 14 14 13 13 12 18 19 21 23 24 23 23 23 20 21 21 23 23 26 24 24
22 25 27 28 30 29 29 24 18 17 18 19 20 18 18 22 25 25 26 23 23 21 20 19 18 17 17 18 16 16 15 20 21 20 22 21 21 21 24 24 25 26 26
24 29 32 32 36 35 38 35 29 22 19 20 21 22 21 18 19 22 26 29 29 28 26 24 22 21 22 21 20 18 18 19 19 21 24 25 27 24 23 25 25 26 28
23 29 32 35 39 43 40 35 33 28 23 21 21 22 23 22 23 23 20 19 22 24 27 28 28 25 25 26 24 22 21 21 23 24 25 25 26 29 28 29 30 29 28
23 32 31 41 46 41 37 35 32 29 26 25 23 22 22 23 26 27 25 21 19 19 21 23 25 27 29 30 29 28 26 25 26 25 27 27 27 27 29 32 32 32 34
33 32 41 47 36 33 32 30 33 32 30 26 24 23 23 24 23 25 26 26 24 22 21 21 22 22 23 26 28 29 30 29 29 29 29 29 26 26 30 29 28 30 31
39 46 43 34 30 31 31 30 32 32 30 29 27 26 26 26 27 26 27 28 29 27 26 25 24 23 23 24 25 27 28 30 32 33 33 32 31 29 27 27 31 35 35
44 35 33 32 32 33 34 33 32 32 33 33 33 31 29 27 28 30 31 31 30 31 32 31 30 28 26 25 26 28 28 30 32 33 35 35 36 35 34 33 33 34 35
33 33 33 33 33 33 33 34 35 35 36 36 37 38 37 34 34 33 33 33 34 33 32 31 30 31 33 32 31 29 29 27 28 30 32 34 36 37 37 36 37 37 41
35 34 35 35 36 36 36 37 36 35 37 37 37 39 40 38 39 40 37 35 35 34 34 35 34 32 30 30 30 32 34 34 34 34 35 34 34 34 34 35 34 35 36
34 36 37 38 38 38 38 36 36 37 36 37 38 40 39 39 40 41 41 39 38 37 35 34 32 30 31 30 29 29 33 38 40 41 40 38 37 35 33 33 32 32 31
36 36 36 37 37 37 36 36 34 31 32 33 34 36 37 39 39 40 41 42 39 38 37 35 33 29 28 28 28 29 30 30 34 38 38 39 39 37 36 34 33 31 32
36 36 35 35 36 36 36 35 35 34 34 30 29 32 33 36 38 40 41 44 41 40 38 36 34 31 29 28 28 29 29 28 29 32 36 38 40 40 39 36 33 32 32
31 32 32 33 33 33 33 33 33 34 35 34 33 31 32 32 33 31 31 35 38 39 41 41 38 35 32 32 31 32 32 31 30 30 31 34 39 42 41 39 35 34 31
27 29 31 32 32 32 32 32 32 34 35 35 34 31 32 33 30 31 33 34 40 43 44 44 40 37 35 34 34 35 35 34 32 32 31 31 34 39 41 39 36 34 32
27 28 29 30 31 31 32 33 33 33 33 33 32 29 28 31 32 29 30 29 30 32 34 36 34 34 33 33 32 32 33 34 34 33 31 31 30 35 37 37 36 35 32
27 27 29 30 31 31 31 32 32 31 31 31 31 29 28 28 30 29 33 29 30 25 23 25 28 31 31 31 31 32 32 34 33 32 31 30 30 32 34 36 37 36 34
26 27 28 29 30 31 33 34 34 32 31 29 29 31 28 29 28 28 26 27 26 24 23 25 27 29 29 30 31 32 33 32 31 32 31 31 30 31 31 33 35 37 35
26 27 28 29 29 29 31 34 36 37 33 30 29 29 25 23 21 21 23 21 21 22 23 24 26 29 27 28 29 31 32 31 31 31 32 33 32 32 33 33 34 36 37
26 26 27 28 28 30 32 35 39 42 37 30 25 25 26 26 25 21 24 22 21 22 23 25 25 26 24 26 27 28 29 28 30 31 32 32 33 34 32 32 32 32 34
24 24 25 27 29 30 31 35 42 47 37 28 24 24 24 25 25 23 23 22 21 19 21 24 27 30 29 29 29 29 27 27 28 28 30 30 33 33 29 30 31 34 33
Wind_Direction
318 313 325 328 324 327 335 337 346 11 23 8 18 360 239 225 215 229 241 248 251 254 255 253 249 247 250 254 255 253 254 258 255 245 255 252 250 251 263 243 237 240 234
312 315 321 321 322 323 324 329 334 340 333 337 344 13 359 234 219 253 238 247 260 257 253 256 249 250 247 251 259 258 251 255 253 244 249 245 246 246 248 247 239 243 254
310 315 317 315 315 310 304 313 321 326 331 337 341 322 23 329 240 263 264 275 271 264 259 262 262 263 261 252 245 261 260 255 257 255 246 248 252 246 253 240 248 255 257
310 314 324 328 328 324 313 297 297 303 307 312 318 325 322 288 264 271 282 295 282 277 265 269 270 271 272 262 254 255 255 255 264 259 250 249 245 245 237 238 253 255 252
351 337 329 330 339 344 327 318 305 295 294 294 294 294 287 281 272 270 275 287 288 272 250 264 255 272 264 275 267 265 251 247 256 249 250 251 253 247 246 238 244 252 246
344 348 345 338 341 348 340 321 313 309 309 302 286 277 275 274 271 270 272 275 278 278 271 270 271 272 266 272 274 264 256 247 250 248 247 251 253 253 249 244 245 249 246
340 335 341 344 341 339 337 332 311 306 305 304 301 296 284 273 269 269 271 268 270 273 272 267 266 271 270 269 278 253 250 245 251 251 244 248 248 253 250 257 255 256 256
326 330 337 330 333 332 326 322 318 304 297 295 296 296 292 287 280 273 268 266 264 263 263 263 261 262 265 264 262 267 266 262 262 256 252 251 254 248 253 254 258 261 261
320 324 325 321 320 318 316 312 307 303 298 293 292 289 288 289 286 279 276 273 268 264 260 259 258 257 259 261 265 266 263 262 261 259 254 252 257 253 255 255 256 259 260
311 317 309 307 308 310 310 306 305 303 299 296 292 289 288 285 283 286 284 279 273 266 262 261 262 258 258 260 262 262 261 257 258 259 254 258 258 257 253 253 254 254 257
301 296 300 304 303 304 305 302 300 301 301 296 293 288 286 284 281 281 281 278 271 267 264 261 259 259 259 260 260 259 256 255 255 254 255 258 261 261 254 256 259 256 254
299 299 301 296 298 298 298 298 297 297 296 294 292 289 286 284 284 280 275 274 277 273 267 264 263 262 260 257 257 258 257 256 253 253 255 256 258 258 258 255 250 250 253
294 296 297 299 299 300 300 299 296 292 291 291 290 286 282 281 280 278 277 276 273 273 276 273 269 265 261 260 260 260 260 260 258 256 255 255 257 258 256 258 258 258 255
304 303 303 303 303 302 300 298 295 292 289 287 286 285 283 280 279 275 274 272 271 272 272 269 265 262 264 263 261 260 262 261 256 255 259 260 261 261 261 262 263 265 264
305 304 304 304 303 303 301 299 297 294 292 289 285 283 282 280 278 277 273 270 271 270 270 272 274 274 269 264 262 257 251 252 255 258 264 266 263 264 265 265 266 270 267
303 303 303 303 302 302 300 299 297 296 293 291 289 286 283 283 280 276 274 271 269 270 269 270 270 267 267 268 264 258 253 252 253 255 258 261 263 262 263 264 263 266 264
305 304 304 304 305 306 305 306 305 302 300 297 293 288 285 282 279 275 272 272 271 269 271 272 272 270 270 268 268 268 265 259 256 257 256 255 257 260 261 263 259 261 259
310 311 311 310 308 308 307 307 307 307 306 302 297 297 289 280 276 272 271 270 270 269 267 265 266 264 263 264 265 266 268 270 270 265 259 254 253 255 257 260 257 256 257
315 315 315 315 314 313 312 311 309 309 307 305 302 298 295 287 278 272 271 269 268 266 264 260 259 259 259 260 261 264 268 271 271 273 270 261 253 251 252 256 257 254 256
324 324 324 323 323 320 317 315 313 313 310 306 306 299 296 290 284 269 266 271 268 269 268 264 259 255 256 261 264 264 265 267 272 274 275 270 260 252 249 252 254 252 253
327 329 331 332 330 328 323 318 316 315 312 309 309 306 297 290 293 290 283 281 282 278 270 267 263 251 256 261 265 265 264 263 264 268 270 272 268 257 252 250 249 247 248
332 337 340 343 344 343 340 333 328 320 319 315 318 316 292 297 288 279 286 282 285 276 266 261 258 258 262 264 264 264 265 266 267 267 267 266 266 258 252 248 246 243 245
333 337 340 343 347 351 354 352 343 332 321 324 317 320 309 297 292 290 283 281 280 271 263 260 261 263 263 265 264 263 265 267 267 263 263 259 260 258 253 249 246 242 243
333 337 339 341 342 344 348 351 352 349 334 321 314 311 317 321 313 306 296 285 275 269 266 266 265 266 269 265 264 262 264 262 263 258 258 255 253 254 254 252 248 244 245
339 340 342 344 345 348 350 351 350 345 339 332 321 306 305 298 309 299 301 291 283 277 270 269 271 275 275 279 269 269 263 259 256 256 248 250 254 252 252 249 248 247 248
345 347 350 352 353 352 354 359 358 356 348 336 330 323 306 297 301 299 291 292 286 292 290 280 276 278 275 273 269 265 263 258 255 244 245 250 248 249 250 244 242 248 253